Satellite-Ground Cal/Val Site Overpasses Predictions

Prediction of Satellite NPP Overpassing Cal/Val Site: Antarctic Dome C

Ground Cal/Val Site Location: Latitude: -75.10, Longitude: 123.35; Satellite-Ground Site NADIR distance within 100 km.

Table of predicted overpasses for the next 14.0 days since TLE Epoch: 12/14/2012
Interval Starting Time Ending Time Minimum Distance Time Minimum Distance (km)
1 12/14/2012 07:29:26 12/14/2012 07:29:55 12/14/2012 07:29:40 2.97
2 12/17/2012 14:52:52 12/17/2012 14:53:21 12/17/2012 14:53:07 21.21
3 12/18/2012 14:34:11 12/18/2012 14:34:25 12/18/2012 14:34:18 85.81
4 12/19/2012 07:35:42 12/19/2012 07:36:10 12/19/2012 07:35:56 34.55
5 12/20/2012 07:16:57 12/20/2012 07:17:16 12/20/2012 07:17:07 75.51
6 12/22/2012 14:59:12 12/22/2012 14:59:36 12/22/2012 14:59:24 58.14
7 12/23/2012 14:40:22 12/23/2012 14:40:47 12/23/2012 14:40:34 50.92
8 12/24/2012 07:42:03 12/24/2012 07:42:24 12/24/2012 07:42:13 69.81
9 12/25/2012 07:23:10 12/25/2012 07:23:37 12/25/2012 07:23:24 38.21


<
